Location: Carrières
(48.9495°N, 2.0407°E)
Time: 22:59:37
(UTC+00:00)

Courier 1B Rocket - Pass Details

Date: 18 April 2024
Orbit: 920 x 1201 km, 28.3° (Epoch: 26 May)

Event Time Altitude Azimuth Distance (km) Brightness Sun altitude
Rises 07:34:53 0° 236° (SW) 3,823 7.7 25.2°
Reaches altitude 10° 07:40:14 10° 203° (SSW) 2,785 7.4 26.1°
Maximum altitude 07:41:52 11° 188° (S) 2,693 7.5 26.4°
Drops below altitude 10° 07:43:28 10° 174° (S) 2,738 7.7 26.6°
Sets 07:48:33 0° 140° (SE) 3,618 8.8 27.4°
